Showing default

TRANSIT 5B-1, 670

Orbit data source: Space-Track

TRANSIT 5B-1, 670 is a payload satellite owned by USN BuWeps (US) in LEO that was launched on Sat, 28 Sep 1963 UTC via a THOR ABLESTAR launch vehicle from the Air Force Western Test Range (AFWTR). Payload-class satellites include a variety of spacecraft equipped with specific instruments for various scientific and technological missions. These include communications satellites like Starlink; space stations such as the ISS; scientific satellites like the Hubble; Earth observation satellites from companies like Planet Labs, Umbra, and HawkEye 360; GPS; miniature CubeSats for education and research; and military/defense satellites.

Loading next visibility...
Identifier
670, 1963-038B
Orbit
LEO
Country
Flag of USUS
Related business
Manufacturer
APL
Mission
Defense Navigation
Bus & Motor
TRANSIT 5, Unknown motor
Mass
69 kg wet, 69 kg dry
Launch date (UTC)
1963-09-28 (62 years ago)
Launch vehicle
THOR ABLESTAR
Launch site
Air Force Western Test Range (AFWTR)
Object type
Payload
Rocket body
Debris
Shape & HBR
Oct Cyl + 1 Rod, 15.5 m
Radar Cross Section
0.334 m², Medium (>0.1 m² and < 1m²)

Expand to show TLE details & history
Last TLE update: 9 hours ago

TLE from 9 hours ago
0 TRANSIT 5B-1
1 00670U 63038B   25243.53751585  .00000096  00000-0  14710-3 0  9999
2 00670  89.9803 333.7941 0042917 141.8438 218.5762 13.44631575 35260
Epoch: 2025-08-31T12:54Z
TLE epoch observation values (Epoch: 2025-08-31T12:54:01.369Z)
Latitude
0.00002°
Longitude
160.33236°
Altitude
1,120.144 km
Speed
7.28 km/s
True Right ascension
22h 15m 10s
True Declination
0° 00' 00"
Sunlit
Object was in full shadow at epoch
Visualization orbit readout
Latitude
Unknown
Longitude
Unknown
Altitude
Unknown
Speed
Unknown
Apparent Right ascension
Unknown
Apparent Declination
Unknown
Sunlit
N/A
Visualization observer readout
Local Sidereal Time
13:46:24
Azimuth
Unknown
Elevation
Unknown
Doppler factor
Unknown
Orbital elements
Apogee altitude
1,121.181 km
Perigee altitude
1,057.086 km
Semi-major axis
7,467.27 km
Eccentricity
0.00429
Inclination
89.9803°
RAAN
333.7941°
Arg. of periapsis
141.8438°
True anomaly
218.27082°
Mean anomaly
218.5762°
Eccentric anomaly
218.42338°
Mean motion
3.36357 °/min
Orbital period
107.03 mins
BSTAR
0.0001471
Loading maneuver chart data...
Computing Atmospheric mass density...

Documentation

Showing up to 5 results
|